TimeCDT,TemperatureF,Dew PointF,Humidity,Sea Level PressureIn,VisibilityMPH,Wind Direction,Wind SpeedMPH,Gust SpeedMPH,PrecipitationIn,Events,Conditions,WindDirDegrees,DateUTC
12:52 AM,75.0,50.0,41,29.87,10.0,SSW,9.2,-,N/A,,Clear,200,2012-09-12 05:52:00
1:52 AM,72.0,51.1,48,29.93,10.0,WNW,5.8,-,N/A,,Overcast,290,2012-09-12 06:52:00
2:52 AM,64.0,46.9,54,29.96,10.0,WNW,5.8,-,0.00,Rain,Light Rain,300,2012-09-12 07:52:00
3:52 AM,63.0,42.1,46,29.97,10.0,North,9.2,-,0.00,,Partly Cloudy,360,2012-09-12 08:52:00
4:52 AM,60.1,46.9,62,30.00,10.0,North,9.2,-,0.00,,Mostly Cloudy,10,2012-09-12 09:52:00
5:52 AM,60.1,41.0,49,30.04,10.0,North,11.5,20.7,0.00,,Mostly Cloudy,10,2012-09-12 10:52:00
6:52 AM,59.0,41.0,51,30.05,10.0,North,11.5,-,N/A,,Mostly Cloudy,10,2012-09-12 11:52:00
7:52 AM,59.0,39.9,49,30.09,10.0,North,9.2,-,N/A,,Partly Cloudy,10,2012-09-12 12:52:00
8:52 AM,61.0,39.0,44,30.09,10.0,NNE,9.2,-,N/A,,Mostly Cloudy,30,2012-09-12 13:52:00
9:52 AM,63.0,39.9,43,30.15,10.0,North,10.4,-,N/A,,Mostly Cloudy,10,2012-09-12 14:52:00
10:52 AM,64.0,39.0,40,30.17,10.0,North,13.8,19.6,N/A,,Mostly Cloudy,360,2012-09-12 15:52:00
11:52 AM,60.1,42.1,51,30.18,10.0,North,12.7,-,0.00,Rain,Light Rain,10,2012-09-12 16:52:00
12:52 PM,57.0,43.0,59,30.20,10.0,North,11.5,-,0.00,,Overcast,10,2012-09-12 17:52:00
1:52 PM,55.9,46.0,69,30.21,10.0,North,10.4,-,0.00,,Overcast,360,2012-09-12 18:52:00
2:52 PM,54.0,48.9,83,30.25,6.0,North,4.6,-,0.00,Rain,Light Rain,360,2012-09-12 19:52:00
5:52 PM,54.0,51.1,90,30.25,7.0,Calm,Calm,-,0.04,Rain,Light Rain,0,2012-09-12 22:52:00
7:52 PM,53.1,51.1,93,30.25,10.0,NNW,3.5,-,0.01,,Overcast,340,2012-09-13 00:52:00
8:52 PM,53.1,51.1,93,30.25,10.0,NW,4.6,-,N/A,,Mostly Cloudy,320,2012-09-13 01:52:00
9:52 PM,53.1,51.1,93,30.27,10.0,Calm,Calm,-,N/A,,Scattered Clouds,0,2012-09-13 02:52:00
10:52 PM,53.1,51.1,93,30.27,10.0,Calm,Calm,-,N/A,,Clear,0,2012-09-13 03:52:00